Weather History for Tahiti, French Polynesia

Change the Weather History Date:

Wednesday, February 13, 2013

  Actual Average Record
Temperature  
Mean Temperature 82 °F -  
Max Temperature 87 °F 87 °F 91 °F (2004)
Min Temperature 76 °F 74 °F 71 °F (2001)
Cooling Degree Days 16    
Growing Degree Days 32 (Base 50)    
Moisture  
Dew Point 72 °F    
Average Humidity 74    
Maximum Humidity 89    
Minimum Humidity 54    
Precipitation  
Precipitation 0.01 in 0.28 in - ()
Sea Level Pressure  
Sea Level Pressure 29.88 in    
Wind  
Wind Speed 4 mph ()    
Max Wind Speed 14 mph    
Max Gust Speed -    
Visibility 7.0 miles    
Events Rain    
Averages and records for this station are not official NWS values.
T = Trace of Precipitation, MM = Missing Value Source: Averaged Metar Reports

Daily Weather History Graph

Daily Weather History Graph

Search for Another Location

Airport:

Trip Planner

Search our weather history database for the weather conditions in past years. The results will help you decide how hot, cold, wet, or windy it might be!

Date:

Astronomy

Feb. 13, 2013 Rise Set
Actual Time 5:52 AM TAHT 6:32 PM TAHT
Civil Twilight 5:29 AM TAHT 6:55 PM TAHT
Nautical Twilight 5:03 AM TAHT 7:21 PM TAHT
Astronomical Twilight 4:36 AM TAHT 7:48 PM TAHT
Moon 9:00 AM TAHT (2/13) 9:01 PM TAHT (2/13)
Length of Visible Light 13h 25m
Length of Day
12h 40m
Waxing Crescent, 15% of the Moon is Illuminated
Feb 13
Waxing Crescent
Feb 17
First Quarter
Feb 25
Full
Mar 4
Last Quarter
Mar 11
New

Hourly Weather History & Observations

Time (TAHT) Temp. Heat Index Dew Point Humidity Pressure Visibility Wind Dir Wind Speed Gust Speed Precip Events Conditions
12:00 AM 77.0 °F - 71.6 °F 83% 29.92 in 6.2 mi South 2.3 mph - N/A   Partly Cloudy
12:30 AM 77.0 °F - 71.6 °F 83% 29.92 in 6.2 mi East 2.3 mph - N/A   Partly Cloudy
1:00 AM 77.0 °F - 71.6 °F 83% 29.92 in 6.2 mi ENE 2.3 mph - N/A   Partly Cloudy
1:30 AM 77.0 °F - 71.6 °F 83% 29.89 in 6.2 mi Variable 2.3 mph - N/A   Partly Cloudy
2:00 AM 77 °F - 72 °F 79% 29.90 in 9 mi ESE 2.3 mph - -   Scattered Clouds
2:00 AM 77.0 °F - 71.6 °F 83% 29.89 in 6.2 mi Variable 2.3 mph - N/A   Partly Cloudy
2:30 AM 77.0 °F - 71.6 °F 83% 29.89 in 6.2 mi East 2.3 mph - N/A   Mostly Cloudy
3:00 AM 77.0 °F - 71.6 °F 83% 29.89 in 6.2 mi ENE 3.5 mph - N/A   Partly Cloudy
3:30 AM 77.0 °F - 71.6 °F 83% 29.89 in 6.2 mi East 8.1 mph - N/A   Mostly Cloudy
4:00 AM 77.0 °F - 71.6 °F 83% 29.89 in 6.2 mi East 6.9 mph - N/A   Mostly Cloudy
4:30 AM 77.0 °F - 71.6 °F 83% 29.89 in 6.2 mi Variable 3.5 mph - N/A   Unknown
5:00 AM 77 °F - 72 °F 79% 29.90 in 31 mi East 2.3 mph - -   Clear
5:00 AM 77.0 °F - 71.6 °F 83% 29.89 in 6.2 mi Variable 2.3 mph - N/A   Mostly Cloudy
5:30 AM 77.0 °F - 71.6 °F 83% 29.89 in 6.2 mi Variable 2.3 mph - N/A   Overcast
6:00 AM 77.0 °F - 71.6 °F 83% 29.89 in 6.2 mi South 6.9 mph - N/A   Overcast
6:30 AM 77.0 °F - 71.6 °F 83% 29.89 in 6.2 mi Calm Calm - N/A   Partly Cloudy
7:00 AM 78.8 °F - 73.4 °F 83% 29.92 in 6.2 mi SSW 3.5 mph - N/A   Partly Cloudy
7:30 AM 80.6 °F 84.6 °F 71.6 °F 74% 29.92 in 6.2 mi Calm Calm - N/A   Partly Cloudy
8:00 AM 82 °F - 72 °F 65% 29.94 in 19 mi North 3.5 mph - -   Partly Cloudy
8:00 AM 82.4 °F 87.2 °F 71.6 °F 70% 29.92 in 6.2 mi North 3.5 mph - N/A   Scattered Clouds
8:30 AM 82.4 °F 87.2 °F 71.6 °F 70% 29.92 in 6.2 mi Variable 2.3 mph - N/A   Partly Cloudy
9:00 AM 84.2 °F 90.9 °F 73.4 °F 70% 29.92 in 6.2 mi Variable 2.3 mph - N/A   Partly Cloudy
9:30 AM 84.2 °F 90.9 °F 73.4 °F 70% 29.92 in 6.2 mi Variable 2.3 mph - N/A   Partly Cloudy
10:00 AM 84.2 °F 90.9 °F 73.4 °F 70% 29.92 in 6.2 mi Variable 2.3 mph - N/A   Partly Cloudy
10:30 AM 84.2 °F 89.6 °F 71.6 °F 66% 29.92 in 6.2 mi North 3.5 mph - N/A   Partly Cloudy
11:00 AM 85 °F - 72 °F 57% 29.92 in 19 mi North 4.6 mph - -   Scattered Clouds
11:00 AM 84.2 °F 89.6 °F 71.6 °F 66% 29.92 in 6.2 mi North 4.6 mph - N/A   Partly Cloudy
11:30 AM 86.0 °F 93.4 °F 73.4 °F 66% 29.89 in 6.2 mi NNW 4.6 mph - N/A   Partly Cloudy
12:00 PM 86.0 °F 93.4 °F 73.4 °F 66% 29.89 in 6.2 mi Variable 2.3 mph - N/A   Partly Cloudy
12:30 PM 86.0 °F 93.4 °F 73.4 °F 66% 29.89 in 6.2 mi Variable 2.3 mph - N/A   Scattered Clouds
1:00 PM 87.8 °F 93.8 °F 71.6 °F 58% 29.86 in 6.2 mi NW 4.6 mph - N/A   Scattered Clouds
1:30 PM 87.8 °F 95.6 °F 73.4 °F 62% 29.86 in 6.2 mi West 3.5 mph - N/A   Scattered Clouds
2:00 PM 87 °F - 72 °F 54% 29.86 in 19 mi WNW 3.5 mph - -   Partly Cloudy
2:00 PM 87.8 °F 95.6 °F 73.4 °F 62% 29.86 in 6.2 mi WNW 3.5 mph - N/A   Scattered Clouds
2:30 PM 86.0 °F 91.8 °F 71.6 °F 62% 29.83 in 6.2 mi WSW 5.8 mph - N/A   Scattered Clouds
3:00 PM 86.0 °F 91.8 °F 71.6 °F 62% 29.83 in 6.2 mi SW 6.9 mph - N/A   Scattered Clouds
4:00 PM 86.0 °F 90.4 °F 69.8 °F 58% 29.83 in 6.2 mi SSW 9.2 mph - N/A   Scattered Clouds
4:30 PM 86.0 °F 91.8 °F 71.6 °F 62% 29.83 in 6.2 mi SSW 9.2 mph - N/A   Scattered Clouds
5:00 PM 84 °F - 71 °F 56% 29.83 in 9 mi SSW 10.4 mph - -   Partly Cloudy
5:00 PM 84.2 °F 89.6 °F 71.6 °F 66% 29.83 in 6.2 mi SSW 10.4 mph - N/A   Scattered Clouds
5:30 PM 84.2 °F 88.4 °F 69.8 °F 62% 29.83 in 6.2 mi SSW 5.8 mph - N/A   Scattered Clouds
6:00 PM 84.2 °F 88.4 °F 69.8 °F 62% 29.83 in 6.2 mi SSW 5.8 mph - N/A   Partly Cloudy
6:30 PM 82.4 °F 88.2 °F 73.4 °F 74% 29.83 in 6.2 mi NE 6.9 mph - N/A   Scattered Clouds
7:00 PM 80.6 °F 85.4 °F 73.4 °F 79% 29.86 in 6.2 mi NE 5.8 mph - N/A   Scattered Clouds
7:30 PM 80.6 °F 84.6 °F 71.6 °F 74% 29.86 in 6.2 mi NE 5.8 mph - N/A   Mostly Cloudy
8:00 PM 79 °F - 74 °F 81% 29.87 in 5 mi North 13.8 mph - - Rain Light Rain Showers
8:00 PM 78.8 °F - 73.4 °F 83% 29.86 in 5.0 mi North 13.8 mph - N/A Rain Light Rain Showers
8:30 PM 78.8 °F - 73.4 °F 83% 29.89 in 6.2 mi NNE 9.2 mph - N/A   Mostly Cloudy
9:00 PM 78.8 °F - 73.4 °F 83% 29.89 in 6.2 mi ENE 5.8 mph - N/A   Scattered Clouds
9:30 PM 77.0 °F - 73.4 °F 89% 29.89 in 6.2 mi East 6.9 mph - N/A   Scattered Clouds
10:00 PM 78.8 °F - 73.4 °F 83% 29.89 in 6.2 mi ENE 5.8 mph - N/A   Scattered Clouds
10:30 PM 78.8 °F - 73.4 °F 83% 29.89 in 6.2 mi ESE 3.5 mph - N/A   Mostly Cloudy
11:00 PM 78 °F - 72 °F 77% 29.90 in 9 mi ESE 1.2 mph - -   Partly Cloudy
11:00 PM 78.8 °F - 73.4 °F 83% 29.89 in 6.2 mi Variable 1.2 mph - N/A   Mostly Cloudy
11:30 PM 77.0 °F - 73.4 °F 89% 29.89 in 6.2 mi South 4.6 mph - N/A   Scattered Clouds